Time,TemperatureF,DewpointF,PressureIn,WindDirection,WindDirectionDegrees,WindSpeedMPH,WindSpeedGustMPH,Humidity,HourlyPrecipIn,Conditions,Clouds,dailyrainin,SoftwareType,DateUTC
2013-03-16 00:03:00,63.1,52.8,29.65,SW,232,5.0,6.0,69,0.00,,CLR,0.00,VWS V14.01,2013-03-16 05:03:00,
2013-03-16 00:08:00,63.1,52.8,29.65,SW,220,3.0,9.0,69,0.00,,CLR,0.00,VWS V14.01,2013-03-16 05:08:00,
2013-03-16 00:13:00,63.1,52.8,29.65,SSW,208,3.0,10.0,69,0.00,,CLR,0.00,VWS V14.01,2013-03-16 05:13:00,
2013-03-16 00:18:00,63.1,52.8,29.65,SSW,197,2.0,10.0,69,0.00,,CLR,0.00,VWS V14.01,2013-03-16 05:18:00,
2013-03-16 00:23:00,63.1,52.4,29.65,South,191,4.0,9.0,68,0.00,,CLR,0.00,VWS V14.01,2013-03-16 05:23:00,
2013-03-16 00:28:00,63.1,52.4,29.65,SW,227,2.0,9.0,68,0.00,,CLR,0.00,VWS V14.01,2013-03-16 05:28:00,
2013-03-16 00:34:00,63.0,52.3,29.65,SW,222,3.0,6.0,68,0.00,,CLR,0.00,VWS V14.01,2013-03-16 05:34:00,
2013-03-16 00:39:00,63.1,52.4,29.65,SW,225,4.0,8.0,68,0.00,,CLR,0.00,VWS V14.01,2013-03-16 05:39:00,
2013-03-16 00:44:00,63.3,52.2,29.64,South,186,6.0,10.0,67,0.00,,CLR,0.00,VWS V14.01,2013-03-16 05:44:00,
2013-03-16 00:49:00,63.6,52.0,29.65,SW,216,6.0,10.0,66,0.00,,CLR,0.00,VWS V14.01,2013-03-16 05:49:00,
2013-03-16 00:54:00,63.8,52.2,29.65,SW,230,5.0,12.0,66,0.00,,CLR,0.00,VWS V14.01,2013-03-16 05:54:00,
2013-03-16 00:59:00,63.8,52.2,29.65,SW,226,4.0,12.0,66,0.00,,CLR,0.00,VWS V14.01,2013-03-16 05:59:00,
2013-03-16 01:04:00,63.9,51.9,29.65,SW,232,8.0,13.0,65,0.00,,CLR,0.00,VWS V14.01,2013-03-16 06:04:00,
2013-03-16 01:09:00,64.0,52.0,29.65,WSW,250,11.0,13.0,65,0.00,,CLR,0.00,VWS V14.01,2013-03-16 06:09:00,
2013-03-16 01:14:00,63.9,51.9,29.65,SSW,213,8.0,9.0,65,0.00,,CLR,0.00,VWS V14.01,2013-03-16 06:14:00,
2013-03-16 01:19:00,63.8,51.8,29.65,SW,216,2.0,10.0,65,0.00,,CLR,0.00,VWS V14.01,2013-03-16 06:19:00,
2013-03-16 01:24:00,63.8,51.8,29.65,SW,233,5.0,8.0,65,0.00,,CLR,0.00,VWS V14.01,2013-03-16 06:24:00,
2013-03-16 01:29:00,63.8,51.4,29.65,WSW,238,5.0,10.0,64,0.00,,CLR,0.00,VWS V14.01,2013-03-16 06:29:00,
2013-03-16 01:34:00,63.7,51.3,29.65,SSW,205,3.0,9.0,64,0.00,,CLR,0.00,VWS V14.01,2013-03-16 06:34:00,
2013-03-16 01:39:00,63.5,51.1,29.65,SSW,200,3.0,9.0,64,0.00,,CLR,0.00,VWS V14.01,2013-03-16 06:39:00,
2013-03-16 01:44:00,63.4,51.0,29.65,SW,234,3.0,9.0,64,0.00,,CLR,0.00,VWS V14.01,2013-03-16 06:44:00,
2013-03-16 01:49:00,63.3,51.3,29.64,SSW,196,1.0,10.0,65,0.00,,CLR,0.00,VWS V14.01,2013-03-16 06:49:00,
2013-03-16 01:54:00,63.2,50.8,29.64,SSW,209,4.0,8.0,64,0.00,,CLR,0.00,VWS V14.01,2013-03-16 06:54:00,
2013-03-16 01:59:00,63.1,51.2,29.64,WSW,244,8.0,9.0,65,0.00,,CLR,0.00,VWS V14.01,2013-03-16 06:59:00,
2013-03-16 02:04:00,62.9,51.0,29.64,SW,225,4.0,11.0,65,0.00,,CLR,0.00,VWS V14.01,2013-03-16 07:04:00,
2013-03-16 02:09:00,62.8,50.9,29.64,SW,223,3.0,11.0,65,0.00,,CLR,0.00,VWS V14.01,2013-03-16 07:09:00,
2013-03-16 02:14:00,62.7,50.8,29.64,SSW,199,4.0,9.0,65,0.00,,CLR,0.00,VWS V14.01,2013-03-16 07:14:00,
2013-03-16 02:19:00,62.7,50.8,29.64,SSW,197,2.0,9.0,65,0.00,,CLR,0.00,VWS V14.01,2013-03-16 07:19:00,
2013-03-16 02:24:00,62.7,50.8,29.64,SSW,207,3.0,8.0,65,0.00,,CLR,0.00,VWS V14.01,2013-03-16 07:24:00,
2013-03-16 02:29:00,62.7,50.8,29.64,WSW,240,2.0,9.0,65,0.00,,CLR,0.00,VWS V14.01,2013-03-16 07:29:00,
2013-03-16 02:34:00,62.7,50.8,29.64,WSW,248,7.0,7.0,65,0.00,,CLR,0.00,VWS V14.01,2013-03-16 07:34:00,
2013-03-16 02:39:00,62.7,50.8,29.65,WSW,257,1.0,11.0,65,0.00,,CLR,0.00,VWS V14.01,2013-03-16 07:39:00,
2013-03-16 02:44:00,62.5,50.6,29.64,WSW,238,3.0,6.0,65,0.00,,CLR,0.00,VWS V14.01,2013-03-16 07:44:00,
2013-03-16 02:49:00,62.4,50.5,29.64,WSW,237,4.0,9.0,65,0.00,,CLR,0.00,VWS V14.01,2013-03-16 07:49:00,
2013-03-16 02:54:00,62.3,50.4,29.64,SW,229,2.0,8.0,65,0.00,,CLR,0.00,VWS V14.01,2013-03-16 07:54:00,
2013-03-16 02:59:00,62.2,50.3,29.64,WSW,252,4.0,8.0,65,0.00,,CLR,0.00,VWS V14.01,2013-03-16 07:59:00,
2013-03-16 03:04:00,62.1,50.6,29.64,SW,224,2.0,7.0,66,0.00,,CLR,0.00,VWS V14.01,2013-03-16 08:04:00,
2013-03-16 03:09:00,61.9,50.4,29.64,WSW,245,1.0,7.0,66,0.00,,CLR,0.00,VWS V14.01,2013-03-16 08:09:00,
2013-03-16 03:14:00,61.8,50.3,29.64,SSW,208,3.0,7.0,66,0.00,,CLR,0.00,VWS V14.01,2013-03-16 08:14:00,
2013-03-16 03:19:00,61.7,50.2,29.64,SW,219,3.0,7.0,66,0.00,,CLR,0.00,VWS V14.01,2013-03-16 08:19:00,
2013-03-16 03:24:00,61.5,50.0,29.63,SW,217,2.0,6.0,66,0.00,,CLR,0.00,VWS V14.01,2013-03-16 08:24:00,
2013-03-16 03:29:00,61.5,50.0,29.63,WSW,245,6.0,8.0,66,0.00,,CLR,0.00,VWS V14.01,2013-03-16 08:29:00,
2013-03-16 03:34:00,61.6,50.1,29.63,SW,225,2.0,8.0,66,0.00,,CLR,0.00,VWS V14.01,2013-03-16 08:34:00,
2013-03-16 03:39:00,61.6,50.1,29.63,SSW,211,5.0,9.0,66,0.00,,CLR,0.00,VWS V14.01,2013-03-16 08:39:00,
2013-03-16 03:44:00,61.5,50.0,29.63,SSW,209,2.0,7.0,66,0.00,,CLR,0.00,VWS V14.01,2013-03-16 08:44:00,
2013-03-16 03:49:00,61.4,50.0,29.63,SW,234,0.0,8.0,66,0.00,,CLR,0.00,VWS V14.01,2013-03-16 08:49:00,
2013-03-16 03:54:00,61.3,49.9,29.63,SW,219,4.0,9.0,66,0.00,,CLR,0.00,VWS V14.01,2013-03-16 08:54:00,
2013-03-16 03:59:00,61.3,49.9,29.63,SSW,207,5.0,9.0,66,0.00,,CLR,0.00,VWS V14.01,2013-03-16 08:59:00,
2013-03-16 04:04:00,61.2,49.8,29.63,SW,221,4.0,6.0,66,0.00,,CLR,0.00,VWS V14.01,2013-03-16 09:04:00,
2013-03-16 04:09:00,61.1,50.1,29.63,SSW,209,7.0,8.0,67,0.00,,CLR,0.00,VWS V14.01,2013-03-16 09:09:00,
2013-03-16 04:14:00,61.0,50.0,29.63,WSW,249,7.0,7.0,67,0.00,,CLR,0.00,VWS V14.01,2013-03-16 09:14:00,
2013-03-16 04:19:00,60.9,49.9,29.63,WSW,241,3.0,7.0,67,0.00,,CLR,0.00,VWS V14.01,2013-03-16 09:19:00,
2013-03-16 04:24:00,60.7,49.7,29.63,SW,225,3.0,6.0,67,0.00,,CLR,0.00,VWS V14.01,2013-03-16 09:24:00,
2013-03-16 04:29:00,60.5,49.5,29.64,SW,234,1.0,8.0,67,0.00,,CLR,0.00,VWS V14.01,2013-03-16 09:29:00,
2013-03-16 04:34:00,60.5,49.5,29.64,SW,218,1.0,5.0,67,0.00,,CLR,0.00,VWS V14.01,2013-03-16 09:34:00,
2013-03-16 04:39:00,60.5,49.5,29.64,SW,221,0.0,7.0,67,0.00,,CLR,0.00,VWS V14.01,2013-03-16 09:39:00,
2013-03-16 04:44:00,60.5,49.5,29.64,SW,231,1.0,7.0,67,0.00,,CLR,0.00,VWS V14.01,2013-03-16 09:44:00,
2013-03-16 04:49:00,60.4,49.4,29.64,WSW,238,0.0,7.0,67,0.00,,CLR,0.00,VWS V14.01,2013-03-16 09:49:00,
2013-03-16 04:54:00,60.3,49.3,29.65,SW,221,0.0,8.0,67,0.00,,CLR,0.00,VWS V14.01,2013-03-16 09:54:00,
2013-03-16 04:59:00,60.1,49.1,29.65,WSW,245,2.0,8.0,67,0.00,,CLR,0.00,VWS V14.01,2013-03-16 09:59:00,
2013-03-16 05:04:00,59.9,49.3,29.65,SSW,210,0.0,6.0,68,0.00,,CLR,0.00,VWS V14.01,2013-03-16 10:04:00,
2013-03-16 05:09:00,59.7,49.1,29.65,WSW,238,2.0,6.0,68,0.00,,CLR,0.00,VWS V14.01,2013-03-16 10:09:00,
2013-03-16 05:14:00,59.5,48.9,29.64,SW,233,1.0,3.0,68,0.00,,CLR,0.00,VWS V14.01,2013-03-16 10:14:00,
2013-03-16 05:19:00,59.3,49.1,29.64,SSW,209,1.0,6.0,69,0.00,,CLR,0.00,VWS V14.01,2013-03-16 10:19:00,
2013-03-16 05:24:00,59.2,49.0,29.65,SW,221,3.0,4.0,69,0.00,,CLR,0.00,VWS V14.01,2013-03-16 10:24:00,
2013-03-16 05:29:00,59.1,49.0,29.65,WSW,242,3.0,5.0,69,0.00,,CLR,0.00,VWS V14.01,2013-03-16 10:29:00,
2013-03-16 05:34:00,58.9,48.8,29.65,WSW,252,1.0,5.0,69,0.00,,CLR,0.00,VWS V14.01,2013-03-16 10:34:00,
2013-03-16 05:39:00,58.6,48.9,29.66,SW,235,3.0,5.0,70,0.00,,CLR,0.00,VWS V14.01,2013-03-16 10:39:00,
2013-03-16 05:44:00,58.4,48.7,29.66,WSW,244,3.0,5.0,70,0.00,,CLR,0.00,VWS V14.01,2013-03-16 10:44:00,
2013-03-16 05:49:00,58.3,48.6,29.66,WSW,250,0.0,6.0,70,0.00,,CLR,0.00,VWS V14.01,2013-03-16 10:49:00,
2013-03-16 05:54:00,58.2,48.5,29.66,WSW,252,0.0,1.0,70,0.00,,CLR,0.00,VWS V14.01,2013-03-16 10:54:00,
2013-03-16 05:59:00,58.1,48.4,29.67,WSW,252,3.0,5.0,70,0.00,,CLR,0.00,VWS V14.01,2013-03-16 10:59:00,
2013-03-16 06:04:00,57.9,48.2,29.66,West,262,1.0,1.0,70,0.00,,CLR,0.00,VWS V14.01,2013-03-16 11:04:00,
2013-03-16 06:09:00,57.8,48.1,29.66,WSW,252,1.0,5.0,70,0.00,,CLR,0.00,VWS V14.01,2013-03-16 11:09:00,
2013-03-16 06:14:00,57.8,48.1,29.66,WSW,248,2.0,4.0,70,0.00,,CLR,0.00,VWS V14.01,2013-03-16 11:14:00,
2013-03-16 06:19:00,57.8,48.1,29.66,WSW,244,0.0,4.0,70,0.00,,CLR,0.00,VWS V14.01,2013-03-16 11:19:00,
2013-03-16 06:24:00,57.6,47.9,29.67,West,275,0.0,3.0,70,0.00,,CLR,0.00,VWS V14.01,2013-03-16 11:24:00,
2013-03-16 06:29:00,57.5,47.8,29.67,SW,232,1.0,3.0,70,0.00,,CLR,0.00,VWS V14.01,2013-03-16 11:29:00,
2013-03-16 06:34:00,57.4,48.1,29.68,West,267,0.0,4.0,71,0.00,,CLR,0.00,VWS V14.01,2013-03-16 11:34:00,
2013-03-16 06:39:00,57.4,47.7,29.68,WSW,258,2.0,4.0,70,0.00,,CLR,0.00,VWS V14.01,2013-03-16 11:39:00,
2013-03-16 06:44:00,57.4,47.7,29.69,WSW,237,0.0,3.0,70,0.00,,CLR,0.00,VWS V14.01,2013-03-16 11:44:00,
2013-03-16 06:49:00,57.2,47.5,29.69,WNW,293,0.0,4.0,70,0.00,,CLR,0.00,VWS V14.01,2013-03-16 11:49:00,
2013-03-16 06:54:00,57.1,47.4,29.69,WNW,287,1.0,1.0,70,0.00,,CLR,0.00,VWS V14.01,2013-03-16 11:54:00,
2013-03-16 06:59:00,57.1,47.4,29.69,WSW,246,1.0,4.0,70,0.00,,CLR,0.00,VWS V14.01,2013-03-16 11:59:00,
2013-03-16 07:04:00,57.4,47.3,29.69,West,273,0.0,5.0,69,0.00,,CLR,0.00,VWS V14.01,2013-03-16 12:04:00,
2013-03-16 07:09:00,57.8,47.3,29.70,NW,304,1.0,5.0,68,0.00,,CLR,0.00,VWS V14.01,2013-03-16 12:09:00,
2013-03-16 07:14:00,58.1,47.6,29.70,WNW,298,3.0,4.0,68,0.00,,CLR,0.00,VWS V14.01,2013-03-16 12:14:00,
2013-03-16 07:19:00,58.2,47.3,29.70,NW,304,1.0,7.0,67,0.00,,CLR,0.00,VWS V14.01,2013-03-16 12:19:00,
2013-03-16 07:24:00,58.2,47.3,29.70,WNW,303,0.0,5.0,67,0.00,,CLR,0.00,VWS V14.01,2013-03-16 12:24:00,
2013-03-16 07:29:00,58.1,47.6,29.70,NW,304,4.0,7.0,68,0.00,,CLR,0.00,VWS V14.01,2013-03-16 12:29:00,
2013-03-16 07:34:00,58.0,47.1,29.70,NW,312,1.0,8.0,67,0.00,,CLR,0.00,VWS V14.01,2013-03-16 12:34:00,
2013-03-16 07:39:00,57.8,47.3,29.70,WNW,299,0.0,8.0,68,0.00,,CLR,0.00,VWS V14.01,2013-03-16 12:39:00,
2013-03-16 07:44:00,57.5,47.4,29.71,NW,306,5.0,5.0,69,0.00,,CLR,0.00,VWS V14.01,2013-03-16 12:44:00,
2013-03-16 07:49:00,57.3,47.2,29.71,NW,306,1.0,5.0,69,0.00,,CLR,0.00,VWS V14.01,2013-03-16 12:49:00,
2013-03-16 07:54:00,57.1,47.0,29.72,NW,311,4.0,7.0,69,0.00,,CLR,0.00,VWS V14.01,2013-03-16 12:54:00,
2013-03-16 07:59:00,56.9,47.2,29.73,WNW,301,2.0,7.0,70,0.00,,CLR,0.00,VWS V14.01,2013-03-16 12:59:00,
2013-03-16 08:04:00,56.6,47.3,29.73,NW,321,4.0,7.0,71,0.00,,CLR,0.00,VWS V14.01,2013-03-16 13:04:00,
2013-03-16 08:09:00,56.2,46.9,29.73,NNW,327,0.0,7.0,71,0.00,,CLR,0.00,VWS V14.01,2013-03-16 13:09:00,
2013-03-16 08:15:00,55.8,46.9,29.73,NW,311,3.0,8.0,72,0.00,,CLR,0.00,VWS V14.01,2013-03-16 13:15:00,
2013-03-16 08:20:00,55.5,47.0,29.74,North,5,0.0,8.0,73,0.00,,CLR,0.00,VWS V14.01,2013-03-16 13:20:00,
2013-03-16 08:25:00,55.2,46.7,29.74,NW,304,1.0,5.0,73,0.00,,CLR,0.00,VWS V14.01,2013-03-16 13:25:00,
2013-03-16 08:30:00,55.0,46.9,29.74,NNW,348,2.0,5.0,74,0.00,,CLR,0.00,VWS V14.01,2013-03-16 13:30:00,
2013-03-16 08:35:00,54.6,46.8,29.75,NNW,334,1.0,8.0,75,0.00,,CLR,0.00,VWS V14.01,2013-03-16 13:35:00,
2013-03-16 08:40:00,54.2,46.5,29.75,North,355,4.0,8.0,75,0.00,,CLR,0.00,VWS V14.01,2013-03-16 13:40:00,
2013-03-16 08:45:00,53.9,46.5,29.76,NNW,348,3.0,5.0,76,0.00,,CLR,0.00,VWS V14.01,2013-03-16 13:45:00,
2013-03-16 08:50:00,53.5,46.1,29.76,North,5,6.0,6.0,76,0.00,,CLR,0.00,VWS V14.01,2013-03-16 13:50:00,
2013-03-16 08:55:00,53.0,45.7,29.77,North,351,8.0,9.0,76,0.00,,CLR,0.00,VWS V14.01,2013-03-16 13:55:00,
2013-03-16 09:00:00,52.4,45.1,29.78,North,360,4.0,10.0,76,0.00,,CLR,0.00,VWS V14.01,2013-03-16 14:00:00,
2013-03-16 09:05:00,51.9,44.9,29.78,NNE,13,4.0,8.0,77,0.00,,CLR,0.00,VWS V14.01,2013-03-16 14:05:00,
2013-03-16 09:10:00,51.4,44.4,29.78,NNW,344,7.0,9.0,77,0.00,,CLR,0.00,VWS V14.01,2013-03-16 14:10:00,
2013-03-16 09:15:00,50.6,43.7,29.80,North,355,0.0,7.0,77,0.00,,CLR,0.00,VWS V14.01,2013-03-16 14:15:00,
2013-03-16 09:20:00,49.7,42.8,29.80,North,355,4.0,11.0,77,0.00,,CLR,0.00,VWS V14.01,2013-03-16 14:20:00,
2013-03-16 09:25:00,49.0,42.5,29.80,NNW,344,8.0,12.0,78,0.00,,CLR,0.00,VWS V14.01,2013-03-16 14:25:00,
2013-03-16 09:30:00,48.4,42.2,29.81,NNW,342,4.0,12.0,79,0.00,,CLR,0.00,VWS V14.01,2013-03-16 14:30:00,
2013-03-16 09:35:00,47.3,41.1,29.82,NNW,343,7.0,11.0,79,0.00,,CLR,0.00,VWS V14.01,2013-03-16 14:35:00,
2013-03-16 09:40:00,46.6,40.8,29.82,North,5,3.0,11.0,80,0.00,,CLR,0.00,VWS V14.01,2013-03-16 14:40:00,
2013-03-16 09:45:00,46.2,40.7,29.82,North,355,9.0,13.0,81,0.00,,CLR,0.00,VWS V14.01,2013-03-16 14:45:00,
2013-03-16 09:50:00,45.8,40.3,29.82,North,350,5.0,13.0,81,0.00,,CLR,0.00,VWS V14.01,2013-03-16 14:50:00,
2013-03-16 09:55:00,45.6,40.4,29.82,North,5,9.0,9.0,82,0.00,,,0.00,VWS V14.01,2013-03-16 14:55:00,
2013-03-16 10:00:00,45.2,40.0,29.83,North,355,5.0,12.0,82,0.00,,,0.00,VWS V14.01,2013-03-16 15:00:00,
2013-03-16 10:05:00,45.0,39.8,29.84,North,355,5.0,11.0,82,0.00,,,0.00,VWS V14.01,2013-03-16 15:05:00,
2013-03-16 10:10:00,44.9,39.8,29.84,NNE,28,7.0,14.0,82,0.00,,,0.00,VWS V14.01,2013-03-16 15:10:00,
2013-03-16 10:15:00,44.7,39.5,29.85,NW,309,4.0,9.0,82,0.00,,,0.00,VWS V14.01,2013-03-16 15:15:00,
2013-03-16 10:20:00,44.4,39.3,29.86,NNW,338,2.0,9.0,82,0.00,,,0.00,VWS V14.01,2013-03-16 15:20:00,
2013-03-16 10:25:00,43.6,38.5,29.87,NNW,335,3.0,11.0,82,0.00,,,0.00,VWS V14.01,2013-03-16 15:25:00,
2013-03-16 10:30:00,43.3,38.2,29.87,NNW,329,3.0,11.0,82,0.00,,,0.00,VWS V14.01,2013-03-16 15:30:00,
2013-03-16 10:35:00,43.1,38.3,29.87,NNW,348,4.0,7.0,83,0.00,,,0.00,VWS V14.01,2013-03-16 15:35:00,
2013-03-16 10:40:00,42.4,37.3,29.87,NNW,335,3.0,11.0,82,0.00,,,0.00,VWS V14.01,2013-03-16 15:40:00,
2013-03-16 10:45:00,42.1,37.0,29.87,North,355,4.0,8.0,82,0.00,,,0.00,VWS V14.01,2013-03-16 15:45:00,
2013-03-16 10:50:00,41.8,37.0,29.88,North,360,5.0,8.0,83,0.00,,,0.00,VWS V14.01,2013-03-16 15:50:00,
2013-03-16 10:55:00,41.5,36.7,29.89,North,351,4.0,9.0,83,0.00,,,0.00,VWS V14.01,2013-03-16 15:55:00,
2013-03-16 11:00:00,41.4,36.6,29.89,North,9,6.0,9.0,83,0.00,,,0.00,VWS V14.01,2013-03-16 16:00:00,
2013-03-16 11:05:00,41.3,36.5,29.88,NNW,333,2.0,8.0,83,0.00,,,0.00,VWS V14.01,2013-03-16 16:05:00,
2013-03-16 11:10:00,41.2,36.4,29.89,NW,322,3.0,11.0,83,0.00,,,0.00,VWS V14.01,2013-03-16 16:10:00,
2013-03-16 11:15:00,41.1,36.3,29.89,NNW,347,6.0,7.0,83,0.00,,,0.00,VWS V14.01,2013-03-16 16:15:00,
2013-03-16 11:20:00,41.1,36.3,29.89,NNW,338,4.0,7.0,83,0.00,,,0.00,VWS V14.01,2013-03-16 16:20:00,
2013-03-16 11:25:00,41.1,36.3,29.90,North,355,3.0,11.0,83,0.00,,,0.00,VWS V14.01,2013-03-16 16:25:00,
2013-03-16 11:30:00,41.1,36.3,29.90,NNW,328,4.0,11.0,83,0.00,,,0.00,VWS V14.01,2013-03-16 16:30:00,
2013-03-16 11:35:00,41.0,36.2,29.91,North,350,1.0,7.0,83,0.00,,,0.00,VWS V14.01,2013-03-16 16:35:00,
2013-03-16 11:40:00,41.2,36.4,29.91,North,5,6.0,7.0,83,0.00,,,0.00,VWS V14.01,2013-03-16 16:40:00,
2013-03-16 11:45:00,41.4,36.6,29.91,North,5,2.0,7.0,83,0.00,,,0.00,VWS V14.01,2013-03-16 16:45:00,
2013-03-16 11:50:00,41.7,36.9,29.91,North,5,2.0,7.0,83,0.00,,,0.00,VWS V14.01,2013-03-16 16:50:00,
2013-03-16 11:55:00,42.2,37.4,29.91,North,355,0.0,5.0,83,0.00,,,0.00,VWS V14.01,2013-03-16 16:55:00,
2013-03-16 12:00:00,42.7,37.6,29.92,NNW,344,0.0,5.0,82,0.00,,,0.00,VWS V14.01,2013-03-16 17:00:00,
2013-03-16 12:05:00,43.1,38.0,29.93,NNE,13,0.0,6.0,82,0.00,,,0.00,VWS V14.01,2013-03-16 17:05:00,
2013-03-16 12:10:00,43.5,38.4,29.93,NNW,339,3.0,6.0,82,0.00,,,0.00,VWS V14.01,2013-03-16 17:10:00,
2013-03-16 12:15:00,43.7,38.3,29.93,North,355,0.0,4.0,81,0.00,,,0.00,VWS V14.01,2013-03-16 17:15:00,
2013-03-16 12:20:00,44.0,38.5,29.93,NNW,342,1.0,6.0,81,0.00,,,0.00,VWS V14.01,2013-03-16 17:20:00,
2013-03-16 12:25:00,44.3,38.5,29.93,North,355,2.0,6.0,80,0.00,,,0.00,VWS V14.01,2013-03-16 17:25:00,
2013-03-16 12:30:00,44.6,38.8,29.93,NNW,337,2.0,6.0,80,0.00,,,0.00,VWS V14.01,2013-03-16 17:30:00,
2013-03-16 12:35:00,44.7,38.6,29.93,North,349,4.0,8.0,79,0.00,,,0.00,VWS V14.01,2013-03-16 17:35:00,
2013-03-16 12:40:00,44.8,38.7,29.93,NNW,329,3.0,8.0,79,0.00,,,0.00,VWS V14.01,2013-03-16 17:40:00,
2013-03-16 12:45:00,44.9,38.8,29.93,NNE,13,1.0,5.0,79,0.00,,,0.00,VWS V14.01,2013-03-16 17:45:00,
2013-03-16 12:50:00,45.0,38.9,29.94,North,360,4.0,6.0,79,0.00,,,0.00,VWS V14.01,2013-03-16 17:50:00,
2013-03-16 12:55:00,45.1,38.7,29.93,North,360,0.0,7.0,78,0.00,,,0.00,VWS V14.01,2013-03-16 17:55:00,
2013-03-16 13:00:00,45.2,38.8,29.94,NW,314,3.0,7.0,78,0.00,,,0.00,VWS V14.01,2013-03-16 18:00:00,
2013-03-16 13:05:00,45.3,38.9,29.93,North,9,2.0,4.0,78,0.00,,,0.00,VWS V14.01,2013-03-16 18:05:00,
2013-03-16 13:10:00,45.4,39.0,29.93,North,5,3.0,5.0,78,0.00,,,0.00,VWS V14.01,2013-03-16 18:10:00,
2013-03-16 13:15:00,45.5,39.0,29.94,North,351,2.0,9.0,78,0.00,,,0.00,VWS V14.01,2013-03-16 18:15:00,
2013-03-16 13:20:00,45.6,39.2,29.94,North,11,3.0,9.0,78,0.00,,,0.00,VWS V14.01,2013-03-16 18:20:00,
2013-03-16 13:25:00,45.8,39.3,29.95,North,355,1.0,5.0,78,0.00,,,0.00,VWS V14.01,2013-03-16 18:25:00,
2013-03-16 13:30:00,46.0,39.5,29.95,North,355,0.0,5.0,78,0.00,,,0.00,VWS V14.01,2013-03-16 18:30:00,
2013-03-16 13:35:00,46.0,39.2,29.94,North,11,2.0,5.0,77,0.00,,,0.00,VWS V14.01,2013-03-16 18:35:00,
2013-03-16 13:40:00,45.8,39.0,29.94,NNE,29,0.0,7.0,77,0.00,,,0.00,VWS V14.01,2013-03-16 18:40:00,
2013-03-16 13:45:00,45.8,39.3,29.95,West,270,5.0,6.0,78,0.00,,,0.00,VWS V14.01,2013-03-16 18:45:00,
2013-03-16 13:50:00,45.8,39.0,29.94,NNW,331,4.0,6.0,77,0.00,,,0.00,VWS V14.01,2013-03-16 18:50:00,
2013-03-16 13:55:00,45.7,38.9,29.95,North,360,2.0,7.0,77,0.00,,,0.00,VWS V14.01,2013-03-16 18:55:00,
2013-03-16 14:00:00,45.7,39.2,29.95,North,355,0.0,7.0,78,0.00,,,0.00,VWS V14.01,2013-03-16 19:00:00,
2013-03-16 14:05:00,45.7,39.2,29.94,North,350,4.0,6.0,78,0.00,,,0.00,VWS V14.01,2013-03-16 19:05:00,
2013-03-16 14:10:00,45.6,39.2,29.94,North,355,5.0,6.0,78,0.00,,,0.00,VWS V14.01,2013-03-16 19:10:00,
2013-03-16 14:15:00,45.4,39.0,29.94,North,360,3.0,8.0,78,0.00,,,0.00,VWS V14.01,2013-03-16 19:15:00,
2013-03-16 14:20:00,45.3,38.9,29.94,North,355,5.0,8.0,78,0.00,,,0.00,VWS V14.01,2013-03-16 19:20:00,
2013-03-16 14:25:00,45.1,38.7,29.94,NE,40,4.0,10.0,78,0.00,,,0.00,VWS V14.01,2013-03-16 19:25:00,
2013-03-16 14:31:00,45.2,38.8,29.94,NW,324,2.0,10.0,78,0.00,,,0.00,VWS V14.01,2013-03-16 19:31:00,
2013-03-16 14:36:00,45.2,38.8,29.94,NNE,17,3.0,6.0,78,0.00,,,0.00,VWS V14.01,2013-03-16 19:36:00,
2013-03-16 14:41:00,45.2,39.1,29.95,North,9,5.0,7.0,79,0.00,,,0.00,VWS V14.01,2013-03-16 19:41:00,
2013-03-16 14:46:00,45.1,38.7,29.95,North,355,4.0,8.0,78,0.00,,,0.00,VWS V14.01,2013-03-16 19:46:00,
2013-03-16 14:51:00,45.0,38.9,29.94,North,5,2.0,8.0,79,0.00,,,0.00,VWS V14.01,2013-03-16 19:51:00,
2013-03-16 14:56:00,45.1,38.7,29.94,North,5,2.0,6.0,78,0.00,,OVC018,0.00,VWS V14.01,2013-03-16 19:56:00,
2013-03-16 15:01:00,45.3,38.9,29.94,North,350,7.0,8.0,78,0.00,,OVC018,0.00,VWS V14.01,2013-03-16 20:01:00,
2013-03-16 15:06:00,45.5,39.0,29.94,North,360,4.0,7.0,78,0.00,,OVC018,0.00,VWS V14.01,2013-03-16 20:06:00,
2013-03-16 15:11:00,45.7,38.9,29.94,NNW,344,2.0,10.0,77,0.00,,OVC018,0.00,VWS V14.01,2013-03-16 20:11:00,
2013-03-16 15:16:00,45.7,38.6,29.95,North,355,2.0,7.0,76,0.00,,OVC018,0.00,VWS V14.01,2013-03-16 20:16:00,
2013-03-16 15:21:00,45.6,38.5,29.95,North,355,5.0,9.0,76,0.00,,OVC018,0.00,VWS V14.01,2013-03-16 20:21:00,
2013-03-16 15:26:00,45.6,38.5,29.95,North,5,4.0,6.0,76,0.00,,OVC018,0.00,VWS V14.01,2013-03-16 20:26:00,
2013-03-16 15:31:00,45.5,38.4,29.96,NNE,17,4.0,6.0,76,0.00,,OVC018,0.00,VWS V14.01,2013-03-16 20:31:00,
2013-03-16 15:36:00,45.3,38.2,29.96,North,5,3.0,5.0,76,0.00,,OVC020,0.00,VWS V14.01,2013-03-16 20:36:00,
2013-03-16 15:41:00,45.2,38.1,29.96,North,5,5.0,6.0,76,0.00,,OVC020,0.00,VWS V14.01,2013-03-16 20:41:00,
2013-03-16 15:51:00,44.7,37.9,29.97,North,351,0.0,8.0,77,0.00,,OVC020,0.00,VWS V14.01,2013-03-16 20:51:00,
2013-03-16 15:56:00,44.7,38.3,29.97,North,355,3.0,5.0,78,0.00,,OVC020,0.00,VWS V14.01,2013-03-16 20:56:00,
2013-03-16 16:07:00,44.8,38.0,29.96,North,9,5.0,6.0,77,0.00,,OVC020,0.00,VWS V14.01,2013-03-16 21:07:00,
2013-03-16 16:12:00,44.6,37.8,29.96,North,5,2.0,3.0,77,0.00,,OVC020,0.00,VWS V14.01,2013-03-16 21:12:00,
2013-03-16 16:17:00,44.6,37.8,29.96,NE,41,3.0,5.0,77,0.00,,OVC020,0.00,VWS V14.01,2013-03-16 21:17:00,
2013-03-16 16:22:00,44.7,37.9,29.96,North,5,0.0,3.0,77,0.00,,OVC020,0.00,VWS V14.01,2013-03-16 21:22:00,
2013-03-16 16:27:00,44.7,37.9,29.95,NNW,346,2.0,3.0,77,0.00,,OVC020,0.00,VWS V14.01,2013-03-16 21:27:00,
2013-03-16 16:32:00,44.6,37.8,29.96,NE,53,1.0,5.0,77,0.00,,OVC020,0.00,VWS V14.01,2013-03-16 21:32:00,
2013-03-16 16:37:00,44.5,37.8,29.96,NNW,345,4.0,7.0,77,0.00,,OVC028,0.00,VWS V14.01,2013-03-16 21:37:00,
2013-03-16 16:47:00,44.2,37.5,29.96,NE,34,1.0,5.0,77,0.00,,OVC028,0.00,VWS V14.01,2013-03-16 21:47:00,
2013-03-16 16:52:00,44.2,37.5,29.96,NNE,12,1.0,4.0,77,0.00,,OVC028,0.00,VWS V14.01,2013-03-16 21:52:00,
2013-03-16 16:57:00,44.1,37.4,29.96,NE,47,0.0,4.0,77,0.00,,OVC020,0.00,VWS V14.01,2013-03-16 21:57:00,
2013-03-16 17:02:00,44.1,37.4,29.96,NE,56,1.0,3.0,77,0.00,,OVC020,0.00,VWS V14.01,2013-03-16 22:02:00,
2013-03-16 17:07:00,44.0,37.3,29.96,NE,50,5.0,7.0,77,0.00,,OVC020,0.00,VWS V14.01,2013-03-16 22:07:00,
2013-03-16 17:12:00,44.0,37.3,29.97,NE,36,0.0,2.0,77,0.00,,OVC020,0.00,VWS V14.01,2013-03-16 22:12:00,
2013-03-16 17:17:00,44.0,37.3,29.97,NNE,13,0.0,4.0,77,0.00,,OVC020,0.00,VWS V14.01,2013-03-16 22:17:00,
2013-03-16 17:22:00,44.0,37.3,29.98,North,9,0.0,3.0,77,0.00,,OVC020,0.00,VWS V14.01,2013-03-16 22:22:00,
2013-03-16 17:27:00,43.9,37.2,29.98,North,9,0.0,3.0,77,0.00,,OVC020,0.00,VWS V14.01,2013-03-16 22:27:00,
2013-03-16 17:32:00,43.8,37.1,29.98,North,355,3.0,4.0,77,0.00,,OVC020,0.00,VWS V14.01,2013-03-16 22:32:00,
2013-03-16 17:37:00,43.7,37.0,29.99,North,355,0.0,5.0,77,0.00,,OVC020,0.00,VWS V14.01,2013-03-16 22:37:00,
2013-03-16 17:42:00,43.7,37.0,30.00,North,355,0.0,3.0,77,0.00,,OVC020,0.00,VWS V14.01,2013-03-16 22:42:00,
2013-03-16 17:47:00,43.6,36.9,30.00,NNW,340,1.0,4.0,77,0.00,,OVC020,0.00,VWS V14.01,2013-03-16 22:47:00,
2013-03-16 17:52:00,43.5,36.8,30.00,North,355,0.0,4.0,77,0.00,,OVC020,0.00,VWS V14.01,2013-03-16 22:52:00,
2013-03-16 17:57:00,43.3,36.6,30.00,NNW,348,2.0,5.0,77,0.00,,OVC020,0.00,VWS V14.01,2013-03-16 22:57:00,
2013-03-16 18:02:00,43.2,36.8,30.00,North,355,1.0,3.0,78,0.00,,OVC020,0.00,VWS V14.01,2013-03-16 23:02:00,
2013-03-16 18:07:00,43.1,37.0,30.01,North,360,2.0,5.0,79,0.00,,OVC020,0.00,VWS V14.01,2013-03-16 23:07:00,
2013-03-16 18:12:00,42.8,36.8,30.00,North,5,1.0,2.0,79,0.00,,OVC020,0.00,VWS V14.01,2013-03-16 23:12:00,
2013-03-16 18:17:00,42.6,36.9,30.00,North,355,0.0,5.0,80,0.00,,OVC020,0.00,VWS V14.01,2013-03-16 23:17:00,
2013-03-16 18:22:00,42.4,36.7,30.00,North,360,0.0,2.0,80,0.00,,OVC020,0.00,VWS V14.01,2013-03-16 23:22:00,
2013-03-16 18:27:00,42.2,36.8,30.00,North,355,2.0,2.0,81,0.00,,OVC020,0.00,VWS V14.01,2013-03-16 23:27:00,
2013-03-16 18:32:00,42.0,36.6,29.99,North,360,0.0,1.0,81,0.00,,OVC020,0.00,VWS V14.01,2013-03-16 23:32:00,
2013-03-16 18:37:00,41.8,36.4,29.99,North,360,0.0,1.0,81,0.00,,-RA,0.00,VWS V14.01,2013-03-16 23:37:00,
2013-03-16 18:42:00,41.6,36.5,30.00,North,360,1.0,1.0,82,0.01,,-RA,0.01,VWS V14.01,2013-03-16 23:42:00,
2013-03-16 18:47:00,41.4,36.3,30.00,North,360,0.0,4.0,82,0.01,,-RA,0.01,VWS V14.01,2013-03-16 23:47:00,
2013-03-16 18:53:00,41.2,36.1,30.00,North,5,0.0,0.0,82,0.01,,-RA,0.01,VWS V14.01,2013-03-16 23:53:00,
2013-03-16 18:58:00,41.1,36.0,29.99,North,5,0.0,3.0,82,0.01,,-RA,0.01,VWS V14.01,2013-03-16 23:58:00,
2013-03-16 19:03:00,40.9,35.8,30.00,North,350,0.0,1.0,82,0.01,,-RA,0.01,VWS V14.01,2013-03-17 00:03:00,
2013-03-16 19:08:00,40.7,36.0,29.99,North,360,3.0,5.0,83,0.01,,-RA,0.01,VWS V14.01,2013-03-17 00:08:00,
2013-03-16 19:13:00,40.6,35.5,29.99,North,350,3.0,6.0,82,0.01,,-RA,0.01,VWS V14.01,2013-03-17 00:13:00,
2013-03-16 19:18:00,40.4,35.3,29.99,NNE,19,2.0,6.0,82,0.01,,-RA,0.01,VWS V14.01,2013-03-17 00:18:00,
2013-03-16 19:23:00,40.3,35.6,30.00,North,11,0.0,3.0,83,0.01,,-RA,0.01,VWS V14.01,2013-03-17 00:23:00,
2013-03-16 19:28:00,40.2,35.5,30.00,NNE,21,2.0,8.0,83,0.01,,-RA,0.01,VWS V14.01,2013-03-17 00:28:00,
2013-03-16 19:33:00,40.2,35.5,30.00,NNE,18,0.0,4.0,83,0.01,,-RA,0.01,VWS V14.01,2013-03-17 00:33:00,
2013-03-16 19:38:00,40.1,35.4,30.00,NNE,13,1.0,5.0,83,0.01,,RA,0.01,VWS V14.01,2013-03-17 00:38:00,
2013-03-16 19:43:00,40.0,35.3,30.00,North,11,0.0,1.0,83,0.01,,RA,0.02,VWS V14.01,2013-03-17 00:43:00,
2013-03-16 19:48:00,39.9,35.2,30.00,NE,40,1.0,5.0,83,0.01,,RA,0.02,VWS V14.01,2013-03-17 00:48:00,
2013-03-16 19:53:00,39.8,35.1,30.01,North,5,3.0,3.0,83,0.01,,RA,0.02,VWS V14.01,2013-03-17 00:53:00,
2013-03-16 19:58:00,39.7,35.0,30.01,NE,34,2.0,5.0,83,0.01,,-RA,0.02,VWS V14.01,2013-03-17 00:58:00,
2013-03-16 20:03:00,39.6,34.9,30.00,NE,53,2.0,6.0,83,0.01,,-RA,0.02,VWS V14.01,2013-03-17 01:03:00,
2013-03-16 20:08:00,39.5,34.8,30.01,North,10,0.0,6.0,83,0.01,,-RA,0.02,VWS V14.01,2013-03-17 01:08:00,
2013-03-16 20:13:00,39.4,34.7,30.00,North,9,1.0,3.0,83,0.01,,-RA,0.02,VWS V14.01,2013-03-17 01:13:00,
2013-03-16 20:18:00,39.4,34.7,30.00,NNE,13,0.0,3.0,83,0.01,,-RA,0.02,VWS V14.01,2013-03-17 01:18:00,
2013-03-16 20:23:00,39.3,34.6,30.00,NE,51,0.0,6.0,83,0.01,,-RA,0.02,VWS V14.01,2013-03-17 01:23:00,
2013-03-16 20:28:00,39.3,34.6,30.00,ENE,62,5.0,6.0,83,0.01,,-RA,0.02,VWS V14.01,2013-03-17 01:28:00,
2013-03-16 20:33:00,39.3,34.6,30.01,NE,55,0.0,0.0,83,0.01,,-RA,0.02,VWS V14.01,2013-03-17 01:33:00,
2013-03-16 20:38:00,39.3,34.6,30.01,NE,52,0.0,4.0,83,0.02,,-RA,0.03,VWS V14.01,2013-03-17 01:38:00,
2013-03-16 20:43:00,39.2,34.5,30.00,NE,51,3.0,3.0,83,0.01,,-RA,0.03,VWS V14.01,2013-03-17 01:43:00,
2013-03-16 20:48:00,39.2,34.5,30.01,ENE,58,0.0,5.0,83,0.01,,-RA,0.03,VWS V14.01,2013-03-17 01:48:00,
2013-03-16 20:53:00,39.1,34.4,30.01,ENE,58,0.0,0.0,83,0.01,,RA,0.03,VWS V14.01,2013-03-17 01:53:00,
2013-03-16 20:58:00,39.2,34.5,30.02,ENE,58,0.0,0.0,83,0.01,,RA,0.03,VWS V14.01,2013-03-17 01:58:00,
2013-03-16 21:03:00,39.1,34.4,30.02,ENE,58,0.0,1.0,83,0.01,,RA,0.03,VWS V14.01,2013-03-17 02:03:00,
2013-03-16 21:08:00,39.1,34.4,30.03,ENE,58,0.0,1.0,83,0.01,,RA,0.03,VWS V14.01,2013-03-17 02:08:00,
2013-03-16 21:13:00,39.1,34.4,30.03,ENE,58,0.0,0.0,83,0.01,,RA,0.03,VWS V14.01,2013-03-17 02:13:00,
2013-03-16 21:18:00,39.1,34.4,30.03,ENE,58,0.0,0.0,83,0.01,,RA,0.03,VWS V14.01,2013-03-17 02:18:00,
2013-03-16 21:23:00,39.0,34.3,30.02,ENE,58,1.0,1.0,83,0.01,,RA,0.03,VWS V14.01,2013-03-17 02:23:00,
2013-03-16 21:28:00,38.9,34.2,30.02,ENE,58,2.0,3.0,83,0.01,,RA,0.03,VWS V14.01,2013-03-17 02:28:00,
2013-03-16 21:33:00,38.7,34.0,30.02,NE,42,0.0,2.0,83,0.01,,,0.03,VWS V14.01,2013-03-17 02:33:00,
2013-03-16 21:38:00,38.6,33.9,30.03,North,5,0.0,3.0,83,0.01,,,0.03,VWS V14.01,2013-03-17 02:38:00,
2013-03-16 21:43:00,38.5,33.8,30.03,NE,46,0.0,2.0,83,0.00,,,0.03,VWS V14.01,2013-03-17 02:43:00,
2013-03-16 21:48:00,38.4,33.7,30.04,NE,46,0.0,2.0,83,0.00,,,0.03,VWS V14.01,2013-03-17 02:48:00,
2013-03-16 21:53:00,38.4,33.7,30.04,NE,46,0.0,0.0,83,0.00,,BKN100,0.03,VWS V14.01,2013-03-17 02:53:00,
2013-03-16 21:58:00,38.4,33.7,30.05,NE,46,0.0,1.0,83,0.00,,BKN100,0.03,VWS V14.01,2013-03-17 02:58:00,
2013-03-16 22:03:00,38.4,33.7,30.05,NE,46,0.0,0.0,83,0.00,,BKN100,0.03,VWS V14.01,2013-03-17 03:03:00,
2013-03-16 22:08:00,38.4,33.7,30.04,NE,46,0.0,0.0,83,0.00,,BKN100,0.03,VWS V14.01,2013-03-17 03:08:00,
2013-03-16 22:13:00,38.5,33.8,30.04,NE,46,0.0,1.0,83,0.00,,BKN100,0.03,VWS V14.01,2013-03-17 03:13:00,
2013-03-16 22:18:00,38.5,33.8,30.03,ENE,63,3.0,4.0,83,0.00,,BKN100,0.03,VWS V14.01,2013-03-17 03:18:00,
2013-03-16 22:23:00,38.4,33.7,30.02,NE,56,1.0,3.0,83,0.00,,BKN100,0.03,VWS V14.01,2013-03-17 03:23:00,
2013-03-16 22:29:00,38.4,33.7,30.03,North,351,0.0,3.0,83,0.00,,BKN100,0.03,VWS V14.01,2013-03-17 03:29:00,
2013-03-16 22:34:00,38.3,33.6,30.03,NNE,17,0.0,0.0,83,0.00,,OVC100,0.03,VWS V14.01,2013-03-17 03:34:00,
2013-03-16 22:39:00,38.3,33.6,30.03,NNE,17,0.0,0.0,83,0.00,,OVC100,0.03,VWS V14.01,2013-03-17 03:39:00,
2013-03-16 22:44:00,38.3,33.6,30.02,NE,40,0.0,1.0,83,0.00,,OVC100,0.03,VWS V14.01,2013-03-17 03:44:00,
2013-03-16 22:49:00,38.2,33.5,30.03,ENE,61,0.0,2.0,83,0.00,,OVC100,0.03,VWS V14.01,2013-03-17 03:49:00,
2013-03-16 22:54:00,38.2,33.5,30.03,NE,49,1.0,1.0,83,0.00,,OVC120,0.03,VWS V14.01,2013-03-17 03:54:00,
2013-03-16 22:59:00,38.1,33.4,30.03,NE,54,4.0,4.0,83,0.00,,OVC120,0.03,VWS V14.01,2013-03-17 03:59:00,
2013-03-16 23:01:00,38.0,33.3,30.03,ENE,62,0.0,4.0,83,0.00,,OVC120,0.03,VWS V14.01,2013-03-17 04:01:00,
2013-03-16 23:04:00,38.0,33.3,30.03,ENE,62,0.0,1.0,83,0.00,,OVC120,0.03,VWS V14.01,2013-03-17 04:04:00,
2013-03-16 23:09:00,38.0,33.3,30.03,NE,52,0.0,5.0,83,0.00,,OVC120,0.03,VWS V14.01,2013-03-17 04:09:00,
2013-03-16 23:11:00,37.9,33.2,30.03,ENE,63,0.0,5.0,83,0.00,,OVC120,0.03,VWS V14.01,2013-03-17 04:11:00,
2013-03-16 23:19:00,37.8,33.1,30.03,NE,36,1.0,7.0,83,0.00,,OVC120,0.03,VWS V14.01,2013-03-17 04:19:00,
2013-03-16 23:24:00,37.8,33.1,30.02,North,5,0.0,3.0,83,0.00,,OVC120,0.03,VWS V14.01,2013-03-17 04:24:00,
2013-03-16 23:29:00,37.7,33.0,30.03,NE,34,1.0,4.0,83,0.00,,OVC120,0.03,VWS V14.01,2013-03-17 04:29:00,
2013-03-16 23:34:00,37.7,33.0,30.03,NE,40,0.0,5.0,83,0.00,,OVC110,0.03,VWS V14.01,2013-03-17 04:34:00,
2013-03-16 23:39:00,37.7,33.0,30.03,East,82,4.0,5.0,83,0.00,,OVC110,0.03,VWS V14.01,2013-03-17 04:39:00,
2013-03-16 23:44:00,37.7,33.0,30.02,ENE,59,4.0,7.0,83,0.00,,OVC110,0.03,VWS V14.01,2013-03-17 04:44:00,
2013-03-16 23:49:00,37.7,33.0,30.02,NE,36,0.0,7.0,83,0.00,,OVC110,0.03,VWS V14.01,2013-03-17 04:49:00,
2013-03-16 23:54:00,37.7,33.0,30.02,North,9,2.0,10.0,83,0.00,,OVC090,0.03,VWS V14.01,2013-03-17 04:54:00,
2013-03-16 23:59:00,37.7,33.0,30.02,NE,42,0.0,10.0,83,0.00,,OVC090,0.03,VWS V14.01,2013-03-17 04:59:00,